Location: Unspecified
(43.4354°N, 0.0000°E)
Time: 15:41:23
(UTC+00:00)

Explorer 11/Cluster Stage 4 - All Passes

Search period start: 19 June 2019 00:00
Search period end: 29 June 2019 00:00
Orbit: 467 x 1260 km, 28.8° (Epoch: 19 June)

Date Brightness Start Highest point End Pass type
(mag) Time Alt. Az. Time Alt. Az. Time Alt. Az.
19 Jun - 15:28:55 10° SSE 15:29:07 10° SSE 15:29:19 10° SSE daylight
19 Jun - 17:13:21 10° SW 17:16:35 17° S 17:20:14 10° SE daylight
19 Jun - 19:01:06 10° SW 19:04:23 15° S 19:08:01 10° SSE daylight
20 Jun - 15:18:08 10° SSE 15:18:26 10° SSE 15:18:45 10° SSE daylight
20 Jun - 17:03:00 10° SW 17:05:55 16° S 17:09:09 10° SE daylight
20 Jun - 18:51:06 10° SW 18:53:40 13° S 18:56:27 10° SSE daylight
21 Jun - 15:07:41 10° SSE 15:07:47 10° SSE 15:07:53 10° SSE daylight
21 Jun - 16:52:44 10° SSW 16:55:15 14° S 16:58:01 10° SSE daylight
21 Jun - 18:41:33 10° SSW 18:42:58 11° SSW 18:44:28 10° S daylight
22 Jun - 16:42:34 10° SSW 16:44:36 13° S 16:46:49 10° SSE daylight
23 Jun - 16:32:36 10° SSW 16:33:59 11° S 16:35:26 10° SSE daylight
